Sacramento, CA

12:56 PM PDT on July 26, 2017 (GMT -0700)
Sacramento Executive

Weather History for KSAC - July, 2012

Change the Weather History Date:

Friday, July 13, 2012

  Actual Average Record
Temperature  
Mean Temperature 72 °F -  
Max Temperature 83 °F 92 °F 114 °F (1972)
Min Temperature 60 °F 59 °F 52 °F (1951)
Degree Days  
Heating Degree Days 0    
Month to date heating degree days 0  
Since 1 June heating degree days 18  
Cooling Degree Days 7    
Month to date cooling degree days 147  
Year to date cooling degree days 498  
Since 1 June cooling degree days 358  
Growing Degree Days 20 (Base 50)    
Moisture  
Dew Point 51 °F    
Average Humidity 52    
Maximum Humidity 69    
Minimum Humidity 34    
Precipitation  
Precipitation 0.00 in 0.00 in 0.00 in (2017)
Month to date precipitation 0.00 0.00  
Year to date precipitation 9.86 11.90  
Since 1 July precipitation 0.00  
Sea Level Pressure  
Sea Level Pressure 29.81 in    
Wind  
Wind Speed 9 mph (SSW)    
Max Wind Speed 18 mph    
Max Gust Speed 24 mph    
Visibility 10 miles    
Events      
T = Trace of Precipitation, MM = Missing Value Source: NWS Daily Summary

Daily Weather History Graph

Daily Weather History Graph

Search for Another Location

Airport or City:

Trip Planner

Search our weather history database for the weather conditions in past years. The results will help you decide how hot, cold, wet, or windy it might be!

Date:

Astronomy

Jul. 13, 2012 Rise Set
Actual Time 5:53 AM PDT 8:30 PM PDT
Civil Twilight 5:22 AM PDT 9:01 PM PDT
Nautical Twilight 4:43 AM PDT 9:39 PM PDT
Astronomical Twilight 4:00 AM PDT 10:22 PM PDT
Moon 1:32 AM PDT (7/13) 4:05 PM PDT (7/13)
Length of Visible Light 15h 39m
Length of Day
14h 37m
Waning Crescent, 25% of the Moon is Illuminated
Jul 13
Waning Crescent
Jul 18
New
Jul 26
First Quarter
Aug 1
Full
Aug 9
Last Quarter

Hourly Weather History & Observations

Time (PDT) Temp. Heat Index Dew Point Humidity Pressure Visibility Wind Dir Wind Speed Gust Speed Precip Events Conditions
12:53 AM 66.0 °F - 52.0 °F 60% 29.77 in 10.0 mi South 5.8 mph - N/A   Clear
1:53 AM 64.0 °F - 52.0 °F 65% 29.76 in 10.0 mi SSE 4.6 mph - N/A   Clear
2:53 AM 62.1 °F - 51.1 °F 67% 29.76 in 10.0 mi SSW 4.6 mph - N/A   Clear
3:53 AM 62.1 °F - 50.0 °F 65% 29.76 in 10.0 mi South 5.8 mph - N/A   Clear
4:53 AM 61.0 °F - 48.9 °F 64% 29.77 in 10.0 mi South 8.1 mph - N/A   Clear
5:53 AM 60.1 °F - 50.0 °F 69% 29.79 in 10.0 mi SSE 8.1 mph - N/A   Clear
6:53 AM 60.1 °F - 48.9 °F 67% 29.81 in 10.0 mi SSW 10.4 mph 18.4 mph N/A   Clear
7:53 AM 61.0 °F - 48.9 °F 64% 29.82 in 10.0 mi SW 11.5 mph 20.7 mph N/A   Clear
8:53 AM 64.0 °F - 50.0 °F 60% 29.84 in 10.0 mi SW 12.7 mph 18.4 mph N/A   Clear
9:53 AM 66.9 °F - 51.1 °F 57% 29.85 in 10.0 mi SSW 6.9 mph - N/A   Clear
10:53 AM 71.1 °F - 52.0 °F 51% 29.85 in 10.0 mi Variable 5.8 mph - N/A   Clear
11:53 AM 75.0 °F - 52.0 °F 44% 29.85 in 10.0 mi SW 12.7 mph 17.3 mph N/A   Clear
12:53 PM 79.0 °F - 52.0 °F 39% 29.84 in 10.0 mi South 10.4 mph - N/A   Clear
1:53 PM 82.0 °F - 51.1 °F 34% 29.82 in 10.0 mi SSW 11.5 mph - N/A   Clear
2:53 PM 81.0 °F - 52.0 °F 36% 29.81 in 10.0 mi SSW 11.5 mph 17.3 mph N/A   Clear
3:53 PM 82.0 °F 81.2 °F 53.1 °F 37% 29.81 in 10.0 mi SSW 13.8 mph 21.9 mph N/A   Clear
4:53 PM 80.1 °F 79.9 °F 53.1 °F 39% 29.80 in 10.0 mi SW 13.8 mph 21.9 mph N/A   Clear
5:53 PM 75.9 °F - 52.0 °F 43% 29.79 in 10.0 mi SSW 15.0 mph 24.2 mph N/A   Clear
6:53 PM 71.1 °F - 52.0 °F 51% 29.79 in 10.0 mi SSW 11.5 mph 23.0 mph N/A   Clear
7:53 PM 64.9 °F - 52.0 °F 63% 29.81 in 10.0 mi SSW 10.4 mph 21.9 mph N/A   Clear
8:53 PM 61.0 °F - 51.1 °F 70% 29.82 in 10.0 mi South 11.5 mph 18.4 mph N/A   Clear
9:53 PM 59.0 °F - 51.1 °F 75% 29.85 in 10.0 mi South 10.4 mph 19.6 mph N/A   Clear
10:53 PM 57.0 °F - 51.1 °F 81% 29.86 in 10.0 mi South 12.7 mph 19.6 mph N/A   Clear
11:53 PM 57.0 °F - 51.1 °F 81% 29.85 in 10.0 mi SSW 12.7 mph 20.7 mph N/A   Clear